Flag for Germany Weather past 2 weeks in Ahaus, North Rhine-Westphalia, Germany

Now
57 °F

Sunny.


Feels Like: 55 °F
Forecast: 49 / 53 °F
Wind: 7 mph from Northeast

Location: Twenthe


UV Index: 3 (Moderate)

Visibility: 8 mi


Pressure: 29.84 "Hg

Humidity: 72%

Dew point: 48 °F

Location of AhausLocation

Historic Weather in Ahaus

°F

Ahaus temperature yesterday

Maximum temperature yesterday: 61 °F (at 5:00 PM)
Minimum temperature yesterday: 41 °F (at 7:00 AM)
Average temperature yesterday: 51 °F

Past Weeks' High & Low Weather Summary

 TemperatureHumidityPressure
High71 °F (Apr 7, 5:00 PM)99% (Apr 6, 2:00 AM)30.47 "Hg (Apr 6, 2:00 AM)
Low28 °F (Apr 16, 7:00 AM)31% (Apr 16, 4:00 PM)29.71 "Hg (Apr 8, 5:00 AM)
Average51 °F72%30.08 "Hg
* Reported Apr 5 9:00 AM — Apr 20 9:00 AM, Ahaus, Weather by CustomWeather, © 2014

Note: Actual official high and low records may vary slightly from our data, if they occured in-between our weather recording intervals... More about our weather records

Advertising

Historic Weather Conditions — Data for Previous 24 hours

 ConditionsComfort  
Time TempWeatherWind HumidityBarometerVisibility
9:00 AM
Apr 20
53 °FFog.6 mph78%29.85 "Hg6 mi
8:00 AM50 °FFog.5 mph83%29.87 "Hg5 mi
7:00 AM49 °FFog.6 mph86%29.87 "Hg4 mi
6:00 AM49 °FFog.5 mph86%29.87 "Hg4 mi
5:00 AM50 °FPassing clouds.5 mph82%29.88 "Hg5 mi
4:00 AM51 °FOvercast.5 mph79%29.90 "Hg5 mi
3:00 AM52 °FPassing clouds.5 mph75%29.91 "Hg6 mi
2:00 AM53 °FOvercast.6 mph73%29.93 "Hg6 mi
1:00 AM53 °FPassing clouds.7 mph72%29.95 "Hg6 mi
12:00 AM54 °FClear.7 mph70%29.97 "Hg8 mi
11:00 PM
Apr 19
54 °FClear.6 mph65%29.98 "Hg11 mi
10:00 PM55 °FClear.5 mph63%29.98 "Hg14 mi
9:00 PM57 °FClear.6 mph57%29.99 "Hg15 mi
8:00 PM59 °FSunny.6 mph53%29.99 "Hg19 mi
7:00 PM60 °FSunny.6 mph53%29.99 "Hg19 mi
6:00 PM61 °FScattered clouds.9 mph50%30.00 "Hg16 mi
5:00 PM61 °FSunny.8 mph49%30.02 "Hg16 mi
4:00 PM61 °FPassing clouds.8 mph47%30.04 "Hg19 mi
3:00 PM60 °FSunny.8 mph46%30.06 "Hg19 mi
2:00 PM57 °FPassing clouds.7 mph54%30.08 "Hg16 mi
1:00 PM55 °FPassing clouds.6 mph56%30.10 "Hg19 mi
12:00 PM54 °FPassing clouds.6 mph59%30.11 "Hg17 mi
11:00 AM51 °FSunny.6 mph66%30.12 "Hg18 mi
Weather by CustomWeather, © 2014

See weather overview